| time (UTC) | temp F | wind direction | speed MPH | gust MPH | rain 1hr in | rain 24hr in | rain mn in | humidity % | barometer mb |
| 20260508000123 | 63 | 270 | 2.0 | 6.0 | 0.00 | 0.00 | 0.00 | 65 | 1014.6 |
| 20260507235122 | 63 | 270 | 2.0 | 4.0 | 0.00 | 0.00 | 0.00 | 65 | 1014.8 |
| 20260507234122 | 64 | 270 | 2.0 | 5.0 | 0.00 | 0.00 | 0.00 | 64 | 1014.9 |
| 20260507233122 | 64 | 270 | 2.0 | 4.0 | 0.00 | 0.00 | 0.00 | 64 | 1014.9 |
| 20260507232122 | 64 | 270 | 2.0 | 4.0 | 0.00 | 0.00 | 0.00 | 64 | 1014.9 |
| 20260507231122 | 64 | 287 | 2.0 | 4.0 | 0.00 | 0.00 | 0.00 | 64 | 1015.1 |
| 20260507230122 | 64 | 270 | 2.0 | 4.0 | 0.00 | 0.00 | 0.00 | 64 | 1015.3 |
| 20260507225122 | 64 | 270 | 2.0 | 4.0 | 0.00 | 0.00 | 0.00 | 64 | 1015.3 |
| 20260507224122 | 64 | 270 | 2.0 | 4.0 | 0.00 | 0.00 | 0.00 | 64 | 1015.6 |
| 20260507223022 | 64 | 297 | 2.0 | 4.0 | 0.00 | 0.00 | 0.00 | 64 | 1015.4 |
| 20260507222022 | 64 | 297 | 2.0 | 4.0 | 0.00 | 0.00 | 0.00 | 64 | 1015.6 |
| 20260507221022 | 64 | 289 | 2.0 | 4.0 | 0.00 | 0.00 | 0.00 | 63 | 1015.6 |
| 20260507215022 | 64 | 287 | 2.0 | 4.0 | 0.00 | 0.01 | 0.00 | 63 | 1015.4 |
| 20260507214022 | 64 | 270 | 2.0 | 4.0 | 0.00 | 0.01 | 0.00 | 63 | 1015.4 |
| 20260507213022 | 64 | 270 | 2.0 | 3.0 | 0.00 | 0.01 | 0.00 | 63 | 1015.4 |
| 20260507212021 | 65 | 270 | 2.0 | 4.0 | 0.00 | 0.01 | 0.00 | 63 | 1015.6 |
| 20260507211022 | 65 | 270 | 2.0 | 5.0 | 0.00 | 0.01 | 0.00 | 63 | 1015.4 |
| 20260507210021 | 65 | 255 | 2.0 | 4.0 | 0.00 | 0.01 | 0.00 | 63 | 1015.4 |
| 20260507204922 | 65 | 270 | 2.0 | 4.0 | 0.00 | 0.01 | 0.00 | 63 | 1015.4 |
| 20260507203922 | 65 | 304 | 2.0 | 4.0 | 0.00 | 0.01 | 0.00 | 62 | 1015.4 |
| 20260507202922 | 65 | 312 | 2.0 | 4.0 | 0.00 | 0.01 | 0.00 | 62 | 1015.3 |
| 20260507201922 | 65 | 305 | 2.0 | 4.0 | 0.00 | 0.01 | 0.00 | 62 | 1015.4 |
| 20260507200922 | 65 | 312 | 2.0 | 3.0 | 0.00 | 0.01 | 0.00 | 62 | 1015.2 |
| 20260507195923 | 65 | 315 | 2.0 | 4.0 | 0.00 | 0.01 | 0.00 | 62 | 1015.2 |
| 20260507194922 | 66 | 308 | 2.0 | 4.0 | 0.00 | 0.01 | 0.00 | 62 | 1015.3 |
| 20260507193922 | 66 | 330 | 2.0 | 4.0 | 0.00 | 0.01 | 0.00 | 62 | 1015.2 |
| 20260507192922 | 66 | 344 | 2.0 | 4.0 | 0.00 | 0.01 | 0.00 | 61 | 1015.0 |
| 20260507191922 | 66 | 318 | 2.0 | 5.0 | 0.00 | 0.01 | 0.00 | 61 | 1014.9 |
| 20260507190922 | 66 | 346 | 2.0 | 5.0 | 0.00 | 0.01 | 0.00 | 61 | 1014.8 |
| 20260507185922 | 66 | 283 | 2.0 | 4.0 | 0.00 | 0.01 | 0.00 | 61 | 1014.7 |
| 20260507184923 | 67 | 288 | 2.0 | 5.0 | 0.00 | 0.01 | 0.00 | 60 | 1014.6 |
| 20260507183822 | 67 | 204 | 2.0 | 6.0 | 0.00 | 0.01 | 0.00 | 59 | 1014.8 |
| 20260507182822 | 68 | 321 | 2.0 | 4.0 | 0.00 | 0.01 | 0.00 | 59 | 1014.7 |
| 20260507181823 | 68 | 311 | 1.0 | 4.0 | 0.00 | 0.01 | 0.00 | 58 | 1014.7 |
| 20260507180822 | 69 | 308 | 2.0 | 4.0 | 0.00 | 0.01 | 0.00 | 58 | 1014.5 |
| 20260507175823 | 69 | 349 | 2.0 | 5.0 | 0.00 | 0.01 | 0.00 | 57 | 1014.3 |
| 20260507174822 | 70 | 1 | 2.0 | 6.0 | 0.00 | 0.01 | 0.00 | 55 | 1014.0 |
| 20260507173822 | 71 | 45 | 2.0 | 8.0 | 0.00 | 0.01 | 0.00 | 54 | 1013.9 |
| 20260507172822 | 72 | 8 | 2.0 | 6.0 | 0.00 | 0.01 | 0.00 | 53 | 1013.9 |
| 20260507171822 | 73 | 38 | 2.0 | 5.0 | 0.00 | 0.01 | 0.00 | 52 | 1013.8 |
| 20260507170822 | 73 | 49 | 2.0 | 7.0 | 0.00 | 0.01 | 0.00 | 52 | 1013.5 |
| 20260507165822 | 74 | 29 | 2.0 | 4.0 | 0.00 | 0.01 | 0.00 | 51 | 1013.4 |
| 20260507164722 | 74 | 30 | 2.0 | 5.0 | 0.00 | 0.01 | 0.00 | 51 | 1013.5 |
| 20260507163722 | 75 | 45 | 2.0 | 6.0 | 0.00 | 0.01 | 0.00 | 50 | 1013.4 |
| 20260507162723 | 76 | 55 | 2.0 | 5.0 | 0.00 | 0.01 | 0.00 | 49 | 1013.4 |
| 20260507161722 | 76 | 38 | 2.0 | 6.0 | 0.00 | 0.01 | 0.00 | 49 | 1013.2 |
| 20260507160722 | 76 | 63 | 2.0 | 5.0 | 0.00 | 0.01 | 0.00 | 50 | 1013.1 |
| 20260507155722 | 75 | 59 | 2.0 | 6.0 | 0.00 | 0.01 | 0.00 | 51 | 1013.1 |
| 20260507154722 | 74 | 48 | 2.0 | 6.0 | 0.00 | 0.01 | 0.00 | 52 | 1013.1 |
| 20260507153722 | 74 | 55 | 2.0 | 7.0 | 0.00 | 0.01 | 0.00 | 51 | 1013.0 |
| 20260507152722 | 75 | 48 | 2.0 | 6.0 | 0.00 | 0.01 | 0.00 | 49 | 1012.6 |
| 20260507151724 | 76 | 1 | 2.0 | 9.0 | 0.00 | 0.01 | 0.00 | 49 | 1013.0 |
| 20260507150722 | 77 | 19 | 2.0 | 7.0 | 0.00 | 0.01 | 0.00 | 48 | 1012.9 |
| 20260507145722 | 76 | 286 | 4.0 | 9.0 | 0.00 | 0.01 | 0.00 | 38 | 1012.9 |
| 20260507144622 | 75 | 289 | 4.0 | 14.0 | 0.00 | 0.01 | 0.00 | 40 | 1012.8 |
| 20260507143621 | 75 | 286 | 4.0 | 14.0 | 0.00 | 0.01 | 0.00 | 38 | 1013.0 |
| 20260507143522 | 75 | 303 | 4.0 | 7.0 | 0.00 | 0.01 | 0.00 | 37 | 1013.1 |
| 20260507142522 | 74 | 270 | 4.0 | 10.0 | 0.00 | 0.01 | 0.00 | 38 | 1013.1 |
| 20260507141522 | 74 | 270 | 6.0 | 12.0 | 0.00 | 0.01 | 0.00 | 38 | 1013.3 |
| 20260507140122 | 73 | 255 | 6.0 | 12.0 | 0.00 | 0.01 | 0.00 | 36 | 1013.2 |
| 20260507135122 | 73 | 270 | 6.0 | 14.0 | 0.00 | 0.01 | 0.00 | 38 | 1013.3 |
| 20260507134122 | 73 | 300 | 6.0 | 12.0 | 0.00 | 0.01 | 0.00 | 37 | 1013.2 |
| 20260507133123 | 72 | 290 | 5.0 | 9.0 | 0.00 | 0.01 | 0.00 | 39 | 1013.4 |
| 20260507132122 | 72 | 302 | 6.0 | 12.0 | 0.00 | 0.01 | 0.00 | 38 | 1013.6 |
| 20260507131122 | 72 | 310 | 6.0 | 13.0 | 0.00 | 0.01 | 0.00 | 37 | 1013.7 |
| 20260507130022 | 72 | 274 | 5.0 | 10.0 | 0.00 | 0.01 | 0.00 | 39 | 1013.8 |
| 20260507125022 | 72 | 292 | 4.0 | 12.0 | 0.00 | 0.01 | 0.00 | 38 | 1013.8 |
| 20260507124022 | 71 | 251 | 7.0 | 14.0 | 0.00 | 0.01 | 0.00 | 41 | 1013.9 |
| 20260507123022 | 71 | 275 | 4.0 | 12.0 | 0.00 | 0.01 | 0.00 | 41 | 1014.0 |
| 20260507122021 | 70 | 254 | 4.0 | 10.0 | 0.00 | 0.01 | 0.00 | 49 | 1014.0 |
| 20260507121022 | 70 | 24 | 3.0 | 9.0 | 0.00 | 0.01 | 0.00 | 48 | 1014.0 |
| 20260507120023 | 70 | 315 | 2.0 | 6.0 | 0.00 | 0.01 | 0.00 | 51 | 1013.9 |
| 20260507115022 | 70 | 12 | 2.0 | 6.0 | 0.00 | 0.01 | 0.00 | 52 | 1014.2 |
| 20260507114022 | 69 | 346 | 2.0 | 7.0 | 0.00 | 0.01 | 0.00 | 56 | 1014.4 |
| 20260507113023 | 69 | 304 | 2.0 | 7.0 | 0.00 | 0.01 | 0.00 | 56 | 1014.3 |
| 20260507112022 | 68 | 18 | 2.0 | 5.0 | 0.00 | 0.01 | 0.00 | 57 | 1014.0 |
| 20260507110922 | 68 | 10 | 2.0 | 9.0 | 0.00 | 0.01 | 0.00 | 56 | 1014.3 |
| 20260507105922 | 68 | 347 | 2.0 | 4.0 | 0.00 | 0.01 | 0.00 | 58 | 1014.5 |
| 20260507104922 | 68 | 1 | 2.0 | 6.0 | 0.00 | 0.01 | 0.00 | 57 | 1014.5 |
| 20260507103922 | 67 | 15 | 2.0 | 6.0 | 0.00 | 0.01 | 0.00 | 58 | 1014.6 |
| 20260507102922 | 67 | 3 | 2.0 | 6.0 | 0.00 | 0.01 | 0.00 | 59 | 1014.6 |
| 20260507101923 | 67 | 16 | 2.0 | 8.0 | 0.00 | 0.01 | 0.00 | 60 | 1014.7 |
| 20260507100922 | 66 | 7 | 2.0 | 6.0 | 0.00 | 0.01 | 0.00 | 61 | 1015.0 |
| 20260507095922 | 66 | 346 | 2.0 | 6.0 | 0.00 | 0.01 | 0.00 | 60 | 1014.9 |
| 20260507094922 | 65 | 296 | 2.0 | 4.0 | 0.00 | 0.01 | 0.00 | 59 | 1014.8 |
| 20260507093922 | 65 | 332 | 2.0 | 6.0 | 0.00 | 0.01 | 0.00 | 56 | 1014.9 |
| 20260507092823 | 64 | 303 | 3.0 | 6.0 | 0.00 | 0.01 | 0.00 | 58 | 1014.8 |
| 20260507091823 | 64 | 350 | 2.0 | 6.0 | 0.00 | 0.01 | 0.00 | 62 | 1014.8 |
| 20260507090822 | 64 | 28 | 2.0 | 6.0 | 0.00 | 0.01 | 0.00 | 62 | 1015.0 |
| 20260507085822 | 63 | 330 | 3.0 | 6.0 | 0.00 | 0.01 | 0.00 | 64 | 1015.2 |
| 20260507084822 | 63 | 2 | 2.0 | 5.0 | 0.00 | 0.01 | 0.00 | 66 | 1015.2 |
| 20260507083822 | 62 | 14 | 2.0 | 5.0 | 0.00 | 0.01 | 0.00 | 66 | 1015.3 |
| 20260507082822 | 62 | 323 | 2.0 | 4.0 | 0.00 | 0.01 | 0.00 | 68 | 1015.6 |
| 20260507081822 | 61 | 1 | 2.0 | 5.0 | 0.00 | 0.01 | 0.00 | 69 | 1015.4 |
| 20260507080823 | 61 | 341 | 2.0 | 4.0 | 0.00 | 0.01 | 0.00 | 70 | 1015.3 |
| 20260507075822 | 60 | 15 | 2.0 | 6.0 | 0.00 | 0.01 | 0.00 | 72 | 1015.7 |
| 20260507074823 | 60 | 358 | 2.0 | 6.0 | 0.00 | 0.01 | 0.00 | 72 | 1015.6 |
| 20260507073722 | 60 | 11 | 2.0 | 5.0 | 0.00 | 0.01 | 0.00 | 74 | 1015.6 |
| 20260507072722 | 60 | 20 | 2.0 | 5.0 | 0.00 | 0.01 | 0.00 | 74 | 1015.7 |
| 20260507071722 | 59 | 356 | 2.0 | 4.0 | 0.00 | 0.01 | 0.00 | 74 | 1015.4 |
| 20260507070722 | 59 | 1 | 2.0 | 4.0 | 0.00 | 0.01 | 0.00 | 76 | 1015.6 |
| 20260507065722 | 59 | 332 | 2.0 | 6.0 | 0.00 | 0.01 | 0.00 | 76 | 1015.6 |
| 20260507064722 | 58 | 323 | 2.0 | 4.0 | 0.00 | 0.01 | 0.00 | 76 | 1015.7 |
| 20260507063722 | 58 | 315 | 1.0 | 4.0 | 0.00 | 0.01 | 0.00 | 77 | 1015.6 |
| 20260507062722 | 58 | 290 | 2.0 | 4.0 | 0.00 | 0.01 | 0.00 | 77 | 1015.7 |
| 20260507061722 | 58 | 286 | 2.0 | 4.0 | 0.00 | 0.01 | 0.00 | 76 | 1015.3 |
| 20260507060722 | 58 | 282 | 2.0 | 4.0 | 0.00 | 0.01 | 0.00 | 77 | 1015.4 |
| 20260507055722 | 58 | 270 | 2.0 | 4.0 | 0.00 | 0.01 | 0.00 | 77 | 1015.2 |
| 20260507054622 | 58 | 270 | 2.0 | 4.0 | 0.00 | 0.01 | 0.00 | 77 | 1015.3 |
| 20260507053921 | 58 | 261 | 2.0 | 5.0 | 0.00 | 0.01 | 0.00 | 77 | 1015.3 |
| 20260507052621 | 57 | 270 | 2.0 | 4.0 | 0.00 | 0.01 | 0.00 | 77 | 1015.2 |
| 20260507051623 | 57 | 270 | 2.0 | 4.0 | 0.00 | 0.01 | 0.00 | 77 | 1015.1 |
| 20260507050621 | 57 | 270 | 2.0 | 4.0 | 0.00 | 0.01 | 0.00 | 76 | 1015.1 |
| 20260507045622 | 57 | 284 | 3.0 | 6.0 | 0.00 | 0.01 | 0.00 | 76 | 1015.0 |
| 20260507044622 | 57 | 278 | 3.0 | 5.0 | 0.00 | 0.01 | 0.00 | 76 | 1014.9 |
| 20260507043621 | 57 | 278 | 2.0 | 6.0 | 0.00 | 0.01 | 0.00 | 76 | 1014.7 |
| 20260507042621 | 57 | 279 | 3.0 | 6.0 | 0.00 | 0.01 | 0.00 | 76 | 1014.8 |
| 20260507041622 | 57 | 270 | 2.0 | 4.0 | 0.00 | 0.01 | 0.00 | 76 | 1014.8 |
| 20260507040621 | 57 | 270 | 2.0 | 5.0 | 0.00 | 0.01 | 0.00 | 76 | 1014.7 |
| 20260507035522 | 58 | 260 | 2.0 | 4.0 | 0.01 | 0.01 | 0.00 | 76 | 1014.6 |
| 20260507034522 | 58 | 270 | 2.0 | 4.0 | 0.01 | 0.01 | 0.00 | 75 | 1014.6 |
| 20260507033522 | 58 | 270 | 2.0 | 4.0 | 0.01 | 0.01 | 0.00 | 76 | 1014.7 |
| 20260507032522 | 58 | 270 | 2.0 | 4.0 | 0.01 | 0.01 | 0.00 | 75 | 1014.8 |
| 20260507031522 | 58 | 270 | 2.0 | 5.0 | 0.01 | 0.01 | 0.00 | 74 | 1014.6 |
| 20260507030522 | 58 | 280 | 3.0 | 6.0 | 0.01 | 0.01 | 0.00 | 74 | 1014.6 |
| 20260507025521 | 58 | 286 | 2.0 | 5.0 | 0.00 | 0.00 | 0.00 | 73 | 1014.7 |
| 20260507024522 | 58 | 270 | 2.0 | 4.0 | 0.00 | 0.00 | 0.00 | 73 | 1014.4 |
| 20260507023522 | 58 | 289 | 2.0 | 4.0 | 0.00 | 0.00 | 0.00 | 73 | 1014.3 |
| 20260507022522 | 58 | 270 | 2.0 | 4.0 | 0.00 | 0.00 | 0.00 | 74 | 1014.3 |
| 20260507021521 | 58 | 270 | 2.0 | 4.0 | 0.00 | 0.00 | 0.00 | 74 | 1014.2 |
| 20260507020522 | 58 | 270 | 2.0 | 5.0 | 0.00 | 0.00 | 0.00 | 74 | 1014.2 |
| 20260507015421 | 58 | 281 | 2.0 | 4.0 | 0.00 | 0.00 | 0.00 | 74 | 1014.0 |
| 20260507014421 | 58 | 293 | 3.0 | 6.0 | 0.00 | 0.00 | 0.00 | 74 | 1013.9 |
| 20260507013422 | 58 | 298 | 4.0 | 7.0 | 0.00 | 0.00 | 0.00 | 74 | 1014.0 |
| 20260507012421 | 58 | 299 | 4.0 | 6.0 | 0.00 | 0.00 | 0.00 | 74 | 1013.9 |
| 20260507011422 | 58 | 291 | 3.0 | 6.0 | 0.00 | 0.00 | 0.00 | 74 | 1013.9 |
| 20260507010421 | 58 | 291 | 3.0 | 6.0 | 0.00 | 0.00 | 0.00 | 74 | 1013.8 |
| 20260507005422 | 58 | 288 | 2.0 | 4.0 | 0.00 | 0.00 | 0.00 | 73 | 1013.9 |
| 20260507004421 | 58 | 285 | 3.0 | 5.0 | 0.00 | 0.00 | 0.00 | 73 | 1013.7 |
| 20260507003422 | 59 | 270 | 2.0 | 4.0 | 0.00 | 0.00 | 0.00 | 73 | 1013.8 |
| 20260507002421 | 58 | 291 | 2.0 | 5.0 | 0.00 | 0.00 | 0.00 | 73 | 1013.9 |
| 20260507001422 | 59 | 298 | 4.0 | 6.0 | 0.00 | 0.00 | 0.00 | 73 | 1013.9 |